Wind_Speed
11 11 10 10 10 10 10 10 10 10 11 12 13 12 11 9 8 7 5 4 3 2 1 1 3 4 5 4 1 5 11 16 12 10 10 12 9 4 8 10 11 10 10 10 9 9 9 11 12 11 10 9 12 13 10 10 8 5 4 5 4 3 3 6 7 7 7 6 10 12 12 12 9 9 12 9 7 8 6 4 2 2 2 2 6 6 6 8
12 12 12 12 11 11 12 12 13 14 15 15 14 12 10 8 6 4 2 1 1 0 2 4 7 9 9 6 5 3 5 12 11 16 16 10 6 4 9 11 10 8 7 8 7 7 9 11 10 10 11 12 12 9 8 9 11 7 3 4 3 4 3 4 10 10 9 12 14 13 13 13 12 13 10 5 3 6 4 4 4 3 0 3 6 6 7 10
14 14 14 13 13 14 14 15 16 16 16 15 14 12 9 7 5 3 3 3 4 5 7 9 12 14 13 5 5 6 1 8 12 17 16 9 6 4 9 10 8 7 5 5 6 7 9 10 8 9 13 15 11 10 10 10 9 6 4 4 1 5 2 4 13 13 13 19 18 14 12 11 13 12 8 7 6 4 4 5 5 4 1 4 6 6 8 11
15 15 14 14 15 15 16 16 16 16 15 14 12 10 9 8 8 7 7 8 9 8 7 11 13 16 13 2 5 7 4 6 17 20 13 8 6 5 9 9 8 7 5 5 6 8 9 10 9 10 15 13 11 11 11 10 6 5 4 3 3 6 5 3 13 13 17 22 20 16 11 9 11 9 9 11 6 3 6 6 4 3 2 5 6 6 9 12
15 14 14 14 15 15 16 16 16 15 14 13 12 10 9 9 9 9 8 7 5 4 6 9 11 14 11 5 8 7 5 1 14 17 10 8 7 7 8 8 8 7 6 7 7 8 9 8 9 11 13 9 9 9 7 10 10 7 5 4 5 7 6 5 13 16 20 19 17 16 10 9 9 8 10 10 5 4 7 5 4 3 3 5 6 7 10 11
14 13 13 14 15 15 16 16 15 15 13 12 11 9 9 8 7 7 5 4 4 4 6 5 11 16 18 16 11 8 7 4 13 15 9 7 7 8 9 8 7 6 6 6 7 7 6 5 8 9 10 7 10 7 4 7 8 7 4 7 7 9 11 11 15 19 21 19 16 14 10 10 7 6 9 10 8 6 6 5 6 3 3 5 6 8 10 10
12 12 14 14 15 16 16 15 14 12 11 10 8 8 8 8 9 9 8 8 6 6 5 7 11 16 21 21 17 17 21 14 14 12 8 8 9 9 8 7 6 5 5 5 4 4 4 7 12 14 10 7 9 8 11 15 15 10 4 7 9 13 16 15 18 18 18 18 16 14 11 9 7 6 7 10 10 7 5 7 7 2 3 4 5 8 10 10
14 14 15 16 15 15 14 12 11 10 9 8 7 7 8 10 13 14 15 15 13 12 8 8 9 8 12 14 17 27 29 21 16 12 9 8 9 9 8 6 5 4 5 5 5 7 10 14 16 14 9 6 8 8 14 20 16 9 5 7 11 13 16 17 18 16 15 14 14 13 10 9 9 4 6 11 10 8 8 8 7 1 3 4 6 9 10 10
16 16 15 15 13 12 10 9 8 8 8 8 9 9 11 14 18 19 20 21 22 21 17 12 7 5 4 8 18 25 23 19 16 13 10 9 10 9 7 8 6 4 7 7 7 7 7 10 10 10 12 12 11 7 8 9 5 4 8 11 13 13 15 16 15 14 13 12 13 11 7 8 7 3 7 13 12 9 9 8 7 1 2 5 7 9 9 10
15 14 13 11 9 8 7 7 8 8 9 10 10 12 17 19 19 19 20 22 25 26 26 22 14 11 11 14 24 19 15 19 17 13 12 9 9 7 6 9 6 4 6 7 6 6 6 13 18 21 22 15 9 8 8 6 7 12 17 17 15 13 13 13 13 13 10 10 12 9 6 7 6 2 6 13 13 10 9 9 8 3 3 5 8 7 8 10
11 10 9 8 7 7 7 7 8 9 10 11 12 15 18 18 19 22 24 24 26 26 28 28 25 26 26 30 33 17 11 18 16 15 14 9 8 9 11 13 8 4 6 13 18 18 20 24 23 18 15 13 13 15 15 14 17 20 21 16 10 10 10 9 11 11 6 7 11 8 4 6 4 2 10 15 15 12 11 10 9 6 5 7 7 7 9 11
11 11 10 9 9 9 9 8 8 9 9 10 12 13 14 17 21 23 22 20 21 23 24 25 26 27 31 39 34 17 14 16 13 16 17 12 12 13 16 16 12 11 12 20 22 17 18 14 9 8 11 16 13 11 14 17 19 17 15 9 6 7 4 5 6 6 5 3 8 5 3 6 4 9 15 13 15 14 12 12 12 9 7 7 7 7 9 11
15 14 14 12 11 10 10 10 9 10 9 9 10 12 15 18 18 15 12 10 11 12 15 19 22 24 29 33 25 17 18 16 12 18 21 18 18 17 17 16 16 16 13 15 14 9 9 5 10 20 21 16 9 10 15 15 14 10 6 5 3 6 3 6 3 3 4 3 6 4 3 6 7 16 17 11 15 15 13 14 13 11 8 7 7 8 10 11
20 19 18 15 12 11 9 9 10 10 10 10 12 14 16 14 10 6 6 8 10 10 11 13 17 23 30 26 19 20 19 16 18 23 24 22 22 22 20 18 16 15 13 16 17 16 16 15 22 27 23 19 18 18 13 8 7 4 2 4 3 3 3 6 4 3 3 4 7 6 3 7 8 15 15 13 16 15 15 15 14 13 10 8 8 8 10 11
22 20 19 18 16 13 11 9 9 10 11 12 12 13 12 7 4 4 5 6 9 11 11 12 12 16 23 21 16 17 16 16 20 22 20 18 20 24 22 20 21 19 18 21 23 24 23 22 27 26 21 23 22 13 5 4 4 4 2 3 3 2 2 6 4 6 5 4 8 6 3 7 9 12 11 15 17 15 17 16 15 15 11 10 10 9 10 11
16 16 15 15 17 18 15 12 10 10 11 11 11 10 8 6 6 8 7 7 9 11 14 17 18 18 16 13 13 16 15 15 15 14 13 14 15 18 18 18 20 20 22 24 24 23 21 23 27 24 17 15 10 6 4 4 3 4 3 2 3 2 1 4 3 6 5 2 5 6 3 5 7 7 6 14 18 16 17 18 16 15 14 12 11 10 10 12
13 13 12 12 14 18 20 18 14 11 9 8 9 9 9 9 10 10 8 9 10 10 14 15 15 19 17 10 11 15 17 15 11 8 7 8 8 11 12 13 16 16 18 19 15 14 16 18 16 12 11 8 3 4 5 4 3 4 2 2 2 2 1 2 3 3 2 2 4 5 5 9 11 11 12 13 18 19 19 20 19 16 16 14 13 11 10 12
12 11 11 10 10 14 19 22 23 20 17 13 11 11 10 9 8 5 4 6 7 7 11 11 6 8 13 13 11 12 13 13 10 7 4 4 4 5 7 8 10 10 10 10 8 11 13 11 7 3 6 5 4 6 4 1 2 2 0 2 1 1 2 3 3 3 2 2 4 3 6 13 14 17 21 17 16 22 23 23 21 18 17 16 14 12 11 13
9 9 10 10 11 13 14 17 22 24 25 24 21 20 18 18 20 20 20 19 15 9 7 13 11 6 6 11 13 14 13 10 9 8 7 5 4 3 4 5 6 5 4 5 7 12 9 6 7 4 4 4 3 3 4 4 4 3 3 3 3 2 3 4 5 4 2 2 6 6 7 12 13 13 18 18 14 21 25 23 22 20 18 18 16 14 12 13
5 6 7 10 11 13 12 11 13 16 19 20 22 21 19 20 21 21 30 35 30 20 13 15 17 16 12 11 13 16 14 10 8 8 8 7 7 6 7 8 9 8 5 2 4 10 10 7 5 2 4 5 4 4 5 2 4 4 4 3 3 3 3 3 4 3 1 0 6 6 5 10 13 13 17 18 12 16 23 22 23 22 20 19 19 16 14 14
3 5 6 8 8 9 11 9 8 11 13 10 8 7 6 9 11 11 23 29 27 26 23 20 19 20 18 15 13 13 16 16 11 9 5 3 4 3 7 9 10 9 6 2 4 5 8 8 3 3 6 4 2 3 4 4 4 3 3 3 1 3 4 3 2 4 2 0 4 2 5 11 13 11 15 14 8 13 21 23 24 25 22 21 21 19 17 15
4 5 6 7 6 8 10 10 10 10 13 11 8 8 11 16 18 19 21 20 20 24 25 22 20 19 18 18 15 13 18 18 16 17 12 9 10 7 10 13 9 4 6 4 4 2 6 7 4 6 4 2 4 4 6 5 5 3 1 2 1 2 4 4 3 4 4 0 4 5 6 12 13 10 13 12 10 14 18 22 26 25 23 23 22 21 19 17
5 5 6 6 6 7 9 9 12 16 19 20 19 21 23 24 22 22 20 15 15 21 22 21 21 19 16 16 15 15 19 17 15 19 17 15 18 14 13 12 7 3 6 6 3 2 5 4 5 2 3 6 6 5 6 5 4 3 3 3 2 3 2 3 3 5 3 1 4 5 5 9 10 8 8 7 8 12 14 16 21 22 22 23 23 23 21 21
5 5 6 5 5 6 7 8 11 14 17 20 21 22 22 22 20 19 16 10 9 15 18 17 19 20 16 13 12 13 18 17 15 18 17 13 11 9 8 6 5 5 4 5 7 8 5 3 4 4 7 7 4 4 6 4 3 2 2 4 2 3 2 4 3 5 4 2 2 4 5 6 5 5 6 5 5 8 9 11 15 19 21 22 24 25 24 23
5 5 5 5 5 5 5 6 8 11 12 13 12 11 13 12 9 7 7 6 5 11 14 11 13 17 15 12 8 6 9 14 18 18 17 14 8 3 4 4 4 3 2 1 8 8 3 5 4 4 6 8 5 4 4 2 1 3 3 3 3 3 3 4 4 5 4 4 3 5 4 4 5 5 7 5 6 6 7 8 13 17 19 22 25 26 25 24
4 4 4 5 5 4 4 5 5 9 12 12 10 9 8 6 1 2 3 5 4 8 11 9 8 12 14 15 10 1 3 8 13 15 14 15 11 3 3 4 4 2 3 3 5 4 1 7 7 5 5 5 4 2 1 4 3 3 2 3 4 4 1 2 4 3 2 2 3 4 3 4 6 6 7 5 6 8 7 9 14 17 20 23 26 26 24 24
3 3 3 3 4 4 4 4 4 8 10 10 11 11 10 7 3 1 1 5 4 5 7 7 6 9 11 16 13 3 1 5 6 11 13 12 12 7 4 3 3 2 2 3 4 1 1 7 9 6 4 3 3 2 0 5 4 2 1 3 5 4 2 1 3 2 1 3 2 3 3 2 5 6 6 4 6 8 7 9 13 18 23 24 25 24 22 22
2 1 1 1 2 3 3 2 4 7 7 8 10 10 8 6 5 3 3 5 3 5 5 5 5 8 8 12 16 11 5 6 4 8 11 8 9 10 7 2 3 1 2 4 3 1 1 4 4 2 3 3 2 1 1 4 1 4 1 3 3 3 4 4 3 1 1 2 3 4 1 1 5 7 5 4 4 7 8 8 10 15 20 21 21 20 20 21
5 4 2 2 2 3 3 3 4 5 5 7 9 8 6 4 5 1 6 3 3 3 2 5 5 8 9 7 14 16 11 9 6 7 8 6 6 7 6 2 4 3 4 6 5 3 0 0 2 3 3 2 2 4 3 4 2 2 3 3 4 4 4 4 3 1 2 3 3 5 1 1 5 7 5 4 2 6 8 7 9 12 14 15 17 18 20 20
8 6 5 3 3 3 4 4 5 6 5 6 8 8 6 3 2 5 5 1 2 3 3 5 4 9 12 6 9 14 9 8 9 8 8 8 8 9 7 3 3 3 5 8 4 2 2 2 3 1 1 2 3 3 2 3 2 2 4 4 4 4 4 3 2 3 4 3 5 6 1 3 3 6 4 2 3 5 6 6 8 11 12 14 17 19 20 20
7 6 5 3 2 3 4 5 7 7 5 5 8 8 6 2 4 7 3 1 1 3 4 4 3 7 9 4 4 10 6 7 12 10 8 7 9 12 9 3 5 5 4 6 5 4 4 1 1 2 3 3 2 1 0 1 2 4 3 3 2 3 4 3 4 5 3 3 6 4 1 4 2 6 5 6 6 6 7 7 8 11 14 17 19 21 21 20
7 7 5 3 1 2 4 5 8 7 3 4 8 7 4 3 5 3 1 3 2 3 2 2 3 5 5 3 3 6 4 5 9 8 4 3 5 8 6 1 1 4 4 4 4 4 2 0 4 4 3 3 3 1 2 2 3 3 3 5 4 3 4 3 4 3 1 5 3 1 1 1 5 9 9 10 11 8 9 11 12 14 16 19 22 23 23 21
8 9 7 4 2 3 4 4 6 7 4 2 6 4 4 5 2 1 3 3 1 2 1 1 3 3 2 3 4 5 2 2 6 5 2 1 4 3 3 1 1 1 1 1 2 4 3 4 6 3 2 3 3 3 2 3 4 5 3 3 3 2 3 3 4 2 4 5 3 1 1 3 5 7 9 10 11 11 11 14 16 17 18 22 24 24 25 24
10 10 9 8 7 5 4 4 3 5 4 4 6 3 7 5 1 1 2 3 1 2 2 1 4 4 2 3 3 3 2 1 4 4 3 3 5 3 4 4 4 3 2 2 2 2 2 4 3 0 2 3 3 3 3 2 2 2 2 4 2 3 3 2 3 2 4 6 5 3 1 3 3 5 8 9 11 15 15 14 15 16 19 22 24 24 23 23
10 10 9 9 9 6 4 3 2 3 5 6 5 6 6 2 3 2 2 3 1 2 1 2 3 4 3 3 3 1 1 2 3 5 5 4 2 1 2 4 4 3 3 2 0 0 1 4 5 2 2 1 1 2 3 4 3 0 2 3 1 3 4 1 3 4 2 4 4 3 3 5 4 8 9 7 11 14 12 11 13 16 18 19 22 22 21 21
9 10 10 10 9 8 7 2 3 3 6 6 6 6 2 3 3 3 2 0 1 1 1 3 3 4 3 4 4 3 1 2 3 3 3 2 2 1 1 2 2 2 3 3 1 0 2 5 5 3 2 2 3 2 2 2 1 1 1 1 2 3 5 3 1 0 3 1 4 2 4 5 4 7 9 6 7 9 8 9 13 15 16 18 20 21 19 18
8 11 12 11 10 9 8 5 3 3 6 5 7 3 3 1 1 2 1 2 2 3 4 1 1 2 1 3 4 5 3 2 2 3 1 1 1 2 1 2 2 1 0 2 1 1 2 4 6 0 1 1 2 2 2 2 2 2 0 3 2 2 4 4 0 4 4 0 4 2 4 6 4 4 7 6 6 9 7 8 11 13 15 17 19 20 18 16
7 11 14 14 11 9 7 6 5 4 5 7 6 2 2 1 0 1 2 3 2 3 5 2 1 1 2 1 2 5 4 2 2 3 1 1 0 2 2 1 1 1 2 2 1 1 2 2 6 1 2 2 2 1 2 3 3 3 3 3 2 1 0 1 0 1 2 2 5 5 6 5 3 4 6 6 7 9 8 7 8 11 14 18 20 20 17 14
4 7 14 17 13 9 7 6 3 3 6 7 3 1 1 1 0 1 2 1 1 2 2 2 1 1 2 2 1 3 3 2 1 2 1 0 1 2 2 1 1 1 2 1 3 1 2 1 5 3 1 3 3 1 1 2 3 4 3 1 1 2 4 1 0 2 1 2 3 4 6 5 6 6 5 8 10 9 8 7 6 10 15 19 21 20 16 14
3 4 12 17 13 9 6 6 6 6 6 4 4 2 1 1 1 2 3 1 1 1 0 3 2 1 2 3 1 1 1 1 2 1 0 0 0 2 2 2 2 1 0 1 2 1 2 2 3 5 3 2 2 2 4 4 2 2 1 1 2 1 1 0 0 2 3 2 2 2 4 7 8 4 6 10 11 8 8 7 7 13 18 20 21 19 15 14
4 4 10 15 12 9 6 7 11 9 6 3 2 1 1 1 2 2 2 1 0 1 0 3 3 2 2 1 1 2 1 1 1 1 1 1 1 1 1 3 3 1 2 1 1 1 1 2 3 4 4 2 4 4 3 5 5 4 3 3 3 2 1 0 3 2 1 2 3 2 3 10 8 3 6 9 8 8 9 8 10 17 21 22 21 17 14 15
9 5 10 14 10 7 6 8 9 6 4 3 3 3 1 2 2 2 1 1 0 1 1 1 1 1 2 1 0 2 1 0 0 1 1 3 3 2 3 4 3 2 3 1 1 2 2 2 0 4 5 5 4 1 3 4 4 4 2 2 3 3 4 4 3 4 1 1 2 3 2 10 7 5 5 7 7 10 11 9 13 20 23 24 22 17 14 15
16 11 13 13 8 7 8 7 6 6 4 3 2 3 3 2 2 1 1 1 0 1 1 0 0 1 0 0 1 2 2 2 2 2 2 3 2 2 4 5 3 3 3 0 1 1 1 2 1 5 5 4 4 3 3 2 3 2 1 2 4 2 3 5 5 3 2 2 1 2 3 9 7 3 5 7 8 11 13 14 17 22 25 25 22 17 15 15
19 19 21 16 7 6 7 4 2 3 2 1 3 4 3 2 3 2 0 0 1 1 1 0 0 1 1 1 2 1 1 1 2 1 1 2 2 2 4 5 3 3 2 1 2 2 1 0 1 3 6 7 6 5 5 3 1 2 3 1 2 3 6 4 2 2 1 5 6 4 5 9 7 2 2 5 7 11 16 19 20 21 25 25 21 17 15 15
10 13 21 23 16 13 11 6 6 5 2 2 3 3 3 3 3 2 1 1 1 1 1 0 1 2 1 2 2 1 0 0 1 1 1 1 3 2 3 4 4 3 2 2 3 3 2 2 2 1 2 4 5 5 4 3 2 2 2 2 3 4 6 3 2 3 3 4 6 6 6 10 12 10 9 8 7 10 16 19 20 21 23 23 20 17 15 15
5 4 9 16 21 23 19 11 8 6 4 3 3 1 1 2 0 1 1 1 1 1 1 1 2 2 1 2 1 1 2 0 0 1 0 3 3 1 2 4 3 2 2 3 3 2 1 1 3 5 6 6 7 8 4 1 2 5 5 4 5 5 6 5 4 3 5 3 3 8 11 12 19 18 15 13 10 10 13 17 21 23 23 23 21 18 16 16
6 3 3 6 11 16 17 14 11 7 4 3 2 0 1 0 1 1 1 1 0 1 1 1 2 2 1 1 0 2 2 1 1 1 2 3 3 1 2 4 3 3 3 4 3 3 3 2 4 6 9 10 9 10 6 2 4 10 8 6 6 6 6 7 6 7 5 4 5 10 9 8 16 18 15 15 14 12 14 20 25 27 27 27 24 19 17 16
7 4 4 5 4 3 6 9 10 9 6 3 2 1 0 1 1 1 1 0 0 1 0 1 2 3 4 3 2 0 2 2 1 2 1 2 2 2 1 2 3 3 3 4 3 3 3 4 4 4 7 11 10 11 9 5 6 8 9 9 8 7 10 12 14 9 7 6 11 10 5 7 15 18 17 17 17 16 20 27 30 30 29 28 24 20 19 18
10 7 7 8 6 3 2 3 4 7 7 4 2 1 1 1 1 2 2 0 1 0 1 1 4 3 4 4 3 1 2 1 2 4 2 2 2 1 1 2 2 2 2 3 2 2 3 3 3 2 5 11 11 10 7 6 6 7 10 11 10 10 13 15 14 9 8 12 17 15 14 16 18 18 19 25 29 26 27 30 30 29 29 26 23 22 20 20
10 8 6 8 9 6 5 3 1 3 4 3 2 1 2 4 3 3 2 2 1 1 2 3 4 2 2 4 4 4 7 6 4 5 4 3 2 2 3 3 3 2 1 1 1 1 3 3 1 3 3 9 10 7 3 5 6 9 13 12 9 9 10 11 10 6 6 12 16 15 15 17 20 20 20 28 32 25 23 27 27 27 26 24 24 23 22 22
13 9 6 7 6 7 7 5 3 3 2 3 2 2 2 4 5 3 3 5 5 4 4 5 3 1 1 2 4 8 10 7 7 7 6 4 4 3 3 2 4 4 1 2 1 2 3 2 2 4 3 7 6 5 5 5 5 9 16 15 8 7 6 7 7 6 8 9 9 8 8 11 15 14 13 20 24 19 19 25 27 27 26 24 25 26 25 24
15 10 7 5 3 5 6 4 5 4 2 3 2 1 3 3 3 2 1 5 7 7 7 6 5 3 1 3 6 8 8 6 7 7 6 6 7 6 5 4 5 5 4 4 2 1 3 2 1 2 2 6 5 5 6 7 7 7 10 8 7 7 5 4 5 8 11 8 4 6 9 10 9 9 11 15 18 17 20 23 26 27 28 28 27 26 26 24
Wind_Direction
115 114 114 115 114 115 116 114 116 115 116 117 115 116 111 110 109 113 126 132 136 114 72 20 358 353 331 307 61 55 39 33 45 81 72 48 40 84 125 124 122 119 126 129 129 128 131 138 134 123 119 110 88 84 87 76 59 68 81 79 119 164 190 178 174 176 148 148 174 174 157 135 136 144 129 125 129 122 124 139 152 188 169 360 339 340 335 323
111 111 109 109 110 111 113 113 114 111 109 107 107 107 105 104 99 101 114 131 157 29 46 30 17 5 344 309 242 217 42 30 49 63 49 33 35 100 131 126 121 113 120 128 130 131 135 134 132 138 126 95 72 77 85 57 48 58 88 89 126 193 183 158 161 162 147 154 167 165 157 144 147 155 144 145 159 138 158 206 207 219 218 357 329 326 320 313
109 106 104 103 103 105 108 109 107 106 104 102 101 99 96 91 85 83 80 102 105 86 68 39 18 2 352 324 234 206 91 26 39 37 26 24 41 108 135 125 114 103 105 120 124 125 128 123 130 142 115 86 62 75 75 45 42 42 68 89 208 192 106 126 158 161 161 157 155 155 161 156 155 160 159 162 162 166 203 216 215 226 316 348 322 316 310 307
107 104 101 98 99 102 104 105 103 102 98 96 93 86 83 80 82 84 90 104 103 96 62 29 14 1 356 322 178 171 188 28 24 14 10 28 52 112 132 124 107 92 99 120 118 114 116 113 130 128 100 75 51 69 56 31 52 38 53 114 185 149 86 129 160 157 158 155 150 152 156 161 168 174 171 159 147 231 225 204 213 233 334 328 319 312 301 303
106 102 99 98 99 101 101 102 99 97 93 88 82 75 74 77 86 87 89 94 91 73 18 22 29 22 27 84 139 154 187 34 9 6 17 42 70 112 129 123 101 94 106 120 116 113 115 115 128 108 82 58 36 61 42 34 77 67 40 94 123 134 107 137 154 152 154 152 149 149 154 169 178 190 190 184 173 212 209 202 235 257 323 310 315 309 293 300
104 101 100 100 100 101 101 100 96 92 87 81 76 72 71 75 82 77 68 47 18 359 5 60 67 54 63 78 103 120 108 67 357 6 32 55 85 110 125 119 97 94 102 115 117 113 118 128 125 90 72 56 39 56 44 32 88 96 47 64 88 129 126 138 148 150 155 153 153 157 165 169 172 195 204 209 198 181 189 215 238 250 315 297 304 301 288 299
102 101 102 102 102 102 100 95 91 84 78 74 71 74 76 74 74 70 65 49 33 27 43 108 96 73 74 77 90 85 68 44 6 18 48 65 93 107 114 115 96 85 91 105 100 104 135 135 112 89 80 72 57 67 76 73 88 102 80 61 88 118 123 140 148 151 162 159 162 165 167 173 175 185 201 214 204 188 208 229 226 228 318 291 297 298 290 296
100 100 101 100 100 98 93 87 80 75 71 71 74 83 84 82 86 84 78 68 61 58 63 114 127 101 75 70 77 64 46 25 14 36 57 73 99 102 99 96 85 76 92 98 96 113 119 114 105 87 73 78 91 93 86 79 68 70 96 95 100 114 126 142 149 156 166 163 167 168 174 190 184 195 226 216 201 197 223 233 216 211 331 277 294 301 292 292
98 98 97 97 96 90 84 76 71 73 76 83 89 89 93 99 98 88 78 72 68 66 68 90 130 149 97 71 71 57 34 20 26 44 62 88 100 94 90 81 72 78 99 109 121 124 116 110 112 113 110 105 99 83 73 76 46 72 113 115 110 115 130 142 148 156 166 168 169 172 195 201 194 260 252 222 206 210 233 227 210 225 320 268 298 304 289 289
95 95 94 93 90 83 78 74 77 85 89 92 94 100 106 105 96 84 77 74 72 73 73 78 92 106 104 88 77 63 28 32 40 51 65 83 95 89 83 76 66 74 97 112 118 113 117 115 114 115 112 101 80 55 50 86 118 116 111 107 109 118 131 145 152 154 163 171 174 187 211 212 216 272 252 228 207 214 235 223 212 240 285 288 313 304 286 294
93 93 94 92 90 88 86 87 89 94 100 98 100 112 113 103 93 87 81 77 74 74 75 79 84 84 82 77 75 66 34 41 44 58 70 84 95 79 69 67 59 60 97 107 102 100 106 109 112 110 97 92 87 72 73 104 119 115 110 96 85 109 126 145 152 157 164 176 195 210 226 244 261 241 250 235 208 218 233 224 223 243 283 303 316 302 290 298
98 97 97 96 95 95 91 92 94 99 110 109 109 116 112 107 105 97 88 80 71 68 68 73 77 78 75 69 66 62 51 49 46 63 72 78 80 70 67 69 79 100 109 106 103 105 110 111 118 113 109 113 101 78 91 112 113 106 106 88 38 62 94 170 156 174 191 211 217 213 297 277 247 231 250 234 207 221 229 230 233 239 278 301 307 300 290 297
99 95 93 93 93 93 91 92 96 99 107 113 115 117 118 120 115 105 89 66 52 57 58 62 69 74 74 67 61 65 65 62 68 77 74 73 77 75 76 81 92 104 102 96 95 105 119 138 130 117 117 113 94 109 119 112 103 93 81 72 52 31 343 216 194 218 209 258 213 161 314 276 245 239 245 222 209 223 230 237 238 237 263 287 298 297 288 297
93 89 85 85 88 92 92 92 99 103 104 112 121 124 126 126 118 100 71 54 55 62 57 63 72 71 74 73 69 70 71 77 85 84 79 78 81 78 80 86 89 94 89 88 92 100 113 126 120 108 101 101 108 118 111 82 78 78 40 30 75 77 295 241 228 195 183 251 194 145 293 264 269 259 242 215 214 226 233 238 240 242 252 274 291 294 286 296
91 86 81 80 81 85 90 93 99 106 107 116 130 135 132 127 110 70 52 67 75 71 63 67 78 76 73 72 70 77 82 85 81 79 80 79 78 76 75 80 84 87 89 95 100 105 113 115 106 95 92 104 112 110 67 23 36 40 82 335 345 118 284 285 245 191 188 230 184 158 279 264 276 277 245 217 218 228 237 242 243 245 247 263 285 291 284 296
89 84 82 83 82 83 87 93 97 103 113 122 128 132 131 120 107 91 76 80 83 82 80 74 74 75 71 62 65 78 80 74 73 80 81 70 71 75 74 80 87 93 97 100 104 107 107 99 92 88 93 101 97 85 53 37 5 1 103 197 284 116 17 308 265 208 199 192 189 193 247 278 274 280 242 210 219 232 240 246 246 247 248 256 279 289 285 294
85 82 83 90 95 90 86 91 97 102 115 128 129 123 114 110 115 102 73 81 93 87 82 80 77 68 60 60 62 64 67 68 79 101 93 70 71 76 83 92 94 101 104 103 104 101 94 88 91 89 79 77 60 79 69 26 329 315 36 117 236 171 148 289 286 253 185 160 221 212 230 262 265 277 276 235 225 236 241 245 247 247 246 253 273 284 289 293
86 82 82 92 112 107 96 94 94 96 104 113 125 122 111 113 127 107 53 96 107 77 58 55 73 71 50 49 52 53 68 78 83 102 112 107 109 90 99 105 106 114 103 91 77 70 77 76 91 98 47 45 31 63 91 189 208 240 341 105 276 259 231 247 264 249 172 197 236 218 245 261 269 278 280 271 242 237 241 244 247 250 246 251 267 278 289 292
87 85 87 96 111 115 116 111 100 96 97 101 108 110 109 103 94 81 74 80 77 73 60 42 55 107 74 49 59 65 75 86 88 100 110 111 116 123 121 110 130 149 90 64 36 40 63 63 57 56 360 342 349 90 150 191 171 174 174 142 152 216 248 241 249 244 179 246 252 230 245 267 281 283 283 289 265 239 241 245 248 250 246 249 261 273 286 292
92 94 104 113 112 104 111 124 127 123 110 106 108 108 107 93 79 70 69 70 69 74 80 63 66 86 84 65 72 73 73 84 96 103 108 106 104 95 84 88 98 87 49 51 24 34 68 74 52 40 271 279 280 217 186 160 128 123 108 110 174 216 273 260 267 294 119 251 263 241 255 274 278 278 282 295 286 246 242 244 247 247 244 248 257 268 282 292
117 119 127 131 121 95 91 96 121 159 164 157 135 119 114 89 82 83 77 70 66 66 67 66 68 71 69 64 70 76 77 81 82 83 90 116 126 76 52 67 79 60 9 16 81 53 70 72 40 300 259 242 264 196 155 112 99 96 124 135 216 226 259 265 266 320 23 83 270 305 323 286 277 278 284 290 274 247 243 238 242 243 241 246 255 264 278 289
150 149 149 144 129 99 96 89 86 125 156 164 153 124 110 102 98 95 90 79 62 56 56 61 65 66 66 64 64 69 73 70 60 61 67 81 93 81 62 63 67 47 342 24 84 24 52 56 341 306 266 150 54 66 102 98 94 72 96 133 269 243 274 293 305 335 9 7 278 352 348 293 287 286 283 276 246 252 255 244 243 244 240 245 254 263 273 283
177 171 165 162 150 120 111 110 105 111 120 124 121 112 104 101 96 88 85 87 66 47 43 48 51 53 57 57 55 58 63 55 36 43 50 65 75 72 71 67 61 52 12 38 93 75 63 26 325 356 87 81 40 36 76 77 74 59 62 97 268 296 342 299 308 332 336 248 273 332 330 288 297 304 292 290 263 266 273 257 249 246 244 248 256 263 270 280
203 201 192 185 173 152 133 130 132 130 125 120 113 109 107 103 99 91 83 90 71 36 32 35 32 35 38 36 39 49 58 51 30 29 31 42 62 59 62 66 59 59 28 57 80 84 97 303 325 71 68 68 64 28 57 66 20 324 162 136 243 293 281 242 290 329 323 329 331 350 335 292 312 321 291 318 323 277 269 264 251 243 243 248 255 261 269 278
229 228 215 208 193 172 151 144 151 159 159 147 132 126 126 118 101 81 70 84 62 13 16 23 19 23 21 13 19 45 60 49 32 25 26 30 38 59 58 49 51 43 266 90 69 76 81 335 359 68 44 52 71 32 48 118 354 315 243 201 209 216 239 281 335 3 13 1 348 28 15 295 309 303 269 302 340 296 269 261 248 239 240 245 253 262 271 278
262 254 235 223 209 186 169 164 159 171 179 182 187 185 176 182 207 23 49 70 44 343 358 13 10 14 11 2 356 2 73 39 26 23 30 30 24 71 75 19 40 67 210 152 81 92 41 18 44 79 60 45 39 15 156 137 84 1 289 200 155 128 134 342 9 41 49 308 315 61 105 262 309 301 270 295 315 295 286 269 254 246 244 247 254 264 274 280
294 266 243 229 211 193 188 191 175 175 184 193 197 196 205 223 227 245 12 49 28 331 352 1 3 12 12 8 10 69 91 353 13 23 34 36 27 62 85 358 36 46 225 136 70 45 330 19 31 47 69 70 31 352 198 117 95 336 316 125 117 104 133 116 65 77 257 271 318 42 119 223 295 277 265 295 304 301 300 278 262 250 248 252 259 267 279 286
7 344 216 198 188 185 188 195 186 182 187 192 189 193 211 223 217 215 83 71 347 328 357 346 356 9 8 23 36 63 56 10 23 6 15 37 32 58 80 75 147 202 326 113 107 273 329 15 9 41 59 64 59 312 189 126 54 290 223 122 115 125 141 127 101 143 300 359 315 314 34 228 276 273 294 337 313 299 294 279 271 256 251 257 264 274 287 291
53 59 74 112 142 164 167 156 164 172 181 180 176 184 193 193 204 151 76 95 310 336 4 335 338 347 346 22 37 41 44 37 38 3 12 44 29 52 80 79 147 145 31 77 135 203 211 301 219 134 71 21 267 259 185 153 293 268 143 74 52 74 83 87 96 129 35 27 273 268 347 53 279 280 308 351 317 277 275 274 272 264 259 266 277 286 293 292
49 51 60 88 125 149 163 155 146 141 146 163 169 171 162 145 128 63 51 97 311 328 320 341 335 338 349 13 23 20 33 33 20 14 34 58 49 57 84 66 65 91 27 38 84 218 285 236 218 141 69 274 271 284 187 178 223 130 92 35 32 32 37 61 69 83 59 346 260 243 154 96 299 283 262 252 266 250 256 281 281 273 278 287 294 295 294 292
34 36 42 52 113 156 171 168 159 141 116 135 161 158 146 103 71 86 72 261 297 330 346 7 349 357 12 46 15 357 10 18 11 21 32 38 37 35 48 40 13 39 17 9 20 331 341 45 269 299 289 302 350 354 335 163 138 115 85 49 45 337 6 28 354 38 70 279 261 240 157 113 221 269 250 244 263 238 227 256 269 269 283 296 299 298 295 291
36 34 32 28 103 164 169 174 174 166 127 122 159 163 138 38 27 92 253 309 318 325 10 357 338 18 17 31 20 344 349 6 9 36 47 27 39 25 28 60 359 25 8 333 336 341 352 318 320 320 297 344 46 40 343 358 38 58 55 57 51 348 2 9 333 6 218 250 250 203 290 181 225 250 257 263 271 253 230 242 252 260 278 292 296 297 296 291
44 42 39 43 92 129 144 158 176 188 204 164 170 170 85 71 44 215 262 324 359 327 5 314 334 7 347 8 11 335 350 357 352 31 73 84 66 26 353 42 96 51 2 311 352 358 342 306 334 357 294 346 68 89 359 322 357 26 64 70 62 59 35 324 288 322 289 269 275 309 285 278 277 267 243 237 256 263 262 264 260 262 275 287 293 295 295 291
49 51 51 59 77 96 119 130 159 185 200 180 164 96 60 77 186 213 259 265 283 354 17 9 341 357 38 44 345 313 39 10 342 20 19 36 53 13 335 342 11 69 100 83 64 38 24 301 306 113 291 345 61 113 130 151 37 29 145 113 102 145 134 262 246 240 287 289 292 308 266 212 263 276 230 226 267 280 280 274 262 263 274 286 293 296 298 297
55 58 60 61 67 78 93 120 164 150 165 164 116 65 74 152 220 181 221 247 274 359 355 30 33 29 8 349 321 327 99 318 355 41 27 37 82 19 349 320 343 51 96 69 351 122 73 261 260 289 311 13 93 152 115 101 85 185 159 98 64 184 144 160 210 191 239 312 299 280 238 213 231 274 270 277 289 287 285 273 258 262 279 292 297 300 306 306
64 62 61 58 56 58 61 86 175 168 183 160 76 55 136 186 202 179 186 162 98 131 331 354 37 55 344 319 334 8 49 311 360 43 28 44 147 217 302 268 303 29 101 105 198 43 38 278 283 345 346 63 104 175 113 97 143 95 94 189 242 164 117 102 264 326 71 20 287 283 273 286 317 296 299 336 318 299 302 281 261 264 284 300 303 309 313 309
60 54 53 51 47 45 46 52 82 150 188 136 79 84 204 186 143 183 116 82 129 119 94 38 346 57 311 302 318 322 336 324 352 41 40 3 165 195 235 266 261 305 91 122 194 187 128 278 294 357 178 9 82 144 64 76 127 80 124 221 208 92 84 95 21 348 35 227 275 308 280 292 341 310 312 342 312 292 293 284 276 277 290 304 311 318 319 312
51 45 39 34 32 29 27 37 60 119 129 89 80 125 181 118 59 176 107 96 131 89 85 134 225 96 194 220 304 297 327 355 357 36 68 309 44 163 172 277 241 296 335 82 108 121 118 291 297 248 169 317 353 125 18 15 55 84 155 167 115 112 258 30 60 335 352 294 286 302 292 275 218 236 287 304 285 281 286 289 287 284 294 308 316 322 323 316
40 34 25 19 21 26 32 42 67 131 91 72 98 163 91 126 53 138 149 97 103 97 95 183 187 80 179 183 243 288 339 34 29 40 94 104 343 196 177 193 217 269 320 104 127 160 112 110 288 275 212 319 356 95 225 304 36 64 91 68 21 159 173 203 138 165 220 273 282 313 323 292 230 213 235 271 278 281 284 285 276 283 301 314 319 322 323 321
41 41 19 11 16 23 33 58 66 77 74 80 153 163 34 151 133 139 162 162 79 85 96 197 161 113 202 213 223 273 9 84 140 100 104 250 276 241 208 184 195 176 7 82 114 126 80 121 255 291 325 328 311 222 198 185 153 92 72 320 296 245 175 234 351 141 146 183 234 308 316 282 259 205 208 258 275 271 261 259 270 292 309 318 322 322 320 321
63 58 11 9 21 23 38 66 53 57 77 82 125 96 27 130 119 117 148 166 185 4 255 172 148 148 182 201 242 219 35 36 130 141 265 232 185 269 221 176 173 138 112 91 105 164 129 156 220 294 328 294 248 242 187 168 162 149 175 199 192 186 155 56 301 296 107 158 189 161 285 278 269 181 203 245 259 266 262 252 272 298 311 318 323 322 314 317
66 60 5 12 28 27 56 69 39 41 91 69 53 69 66 105 100 101 118 129 149 13 34 138 126 130 154 123 156 181 148 59 205 162 236 218 205 222 191 166 164 156 141 140 260 211 157 112 165 272 269 261 267 286 119 155 148 127 164 184 139 137 131 135 228 266 274 207 181 115 263 271 256 174 200 238 253 274 278 267 278 300 311 316 321 318 309 312
61 51 20 21 37 46 67 72 28 27 65 67 71 76 65 80 84 88 95 53 356 10 16 348 35 64 156 183 109 157 190 206 191 185 228 230 241 236 180 167 176 165 138 44 295 168 145 83 13 284 285 311 330 22 72 87 101 112 234 156 141 161 137 151 182 188 210 230 161 87 267 267 266 219 224 254 272 281 284 285 289 300 309 315 318 313 304 307
64 53 39 34 45 66 74 95 89 50 26 56 80 58 40 64 70 62 94 349 5 106 91 351 113 81 70 74 87 146 200 214 215 223 203 208 246 260 181 176 192 178 172 212 144 133 221 212 57 337 332 341 346 359 356 346 64 205 247 200 164 127 100 118 155 107 265 228 165 148 251 262 269 283 262 282 296 291 288 295 299 301 306 312 314 307 298 299
66 56 46 46 61 82 86 105 128 125 143 109 78 37 24 60 54 41 75 94 60 119 115 50 133 120 82 63 64 55 77 69 267 314 19 234 251 251 186 197 211 215 235 218 155 141 211 216 126 90 323 306 305 307 298 285 263 230 222 220 210 149 134 160 142 110 243 232 162 169 236 268 281 294 301 297 295 290 293 299 302 302 303 306 308 303 292 290
60 50 35 38 55 70 75 78 93 112 143 132 93 36 62 100 22 11 80 107 86 116 120 119 145 121 68 68 60 303 279 341 22 359 306 245 265 293 187 204 211 224 218 169 161 130 85 258 208 183 201 223 243 255 252 64 299 274 255 224 211 184 153 130 115 173 203 180 193 224 235 270 286 289 296 300 297 295 299 303 305 306 305 305 307 302 290 287
64 42 7 22 42 55 59 54 56 80 124 133 107 165 203 258 303 336 112 176 167 157 162 147 171 176 175 153 108 272 268 337 21 281 233 237 267 305 202 204 212 221 178 147 169 124 81 289 245 203 225 240 246 260 283 5 273 264 261 233 208 192 158 153 197 212 157 119 261 247 218 239 272 280 287 294 298 302 303 303 305 306 306 308 310 302 289 287
76 84 74 71 53 38 46 37 41 64 79 90 102 106 345 343 321 240 197 188 84 177 209 340 257 224 194 175 139 198 289 340 316 244 236 251 283 352 350 224 204 201 166 146 175 140 122 259 241 191 253 266 259 262 271 270 258 257 253 243 226 198 177 195 223 213 153 192 251 256 229 237 266 280 284 286 290 294 294 297 301 302 305 310 311 300 288 289
79 94 87 84 93 111 96 42 41 66 63 59 80 70 106 149 258 254 208 100 359 289 145 256 278 258 199 178 136 157 245 280 286 265 225 196 246 287 317 251 187 179 164 147 188 165 149 245 241 177 284 284 273 268 253 233 259 272 255 239 225 212 201 213 234 220 189 233 255 266 277 274 271 273 277 282 287 288 289 292 295 299 304 309 308 299 289 291
72 83 86 93 88 59 36 11 7 75 56 42 73 125 171 171 224 272 211 175 277 309 161 216 267 271 188 172 150 204 222 188 196 240 194 164 268 226 208 224 160 143 182 143 156 166 171 253 250 109 314 285 279 293 267 202 234 272 275 261 227 216 219 225 242 231 211 246 259 267 278 278 272 270 271 278 284 286 286 288 291 297 303 305 303 298 291 291
65 73 74 86 67 17 10 2 3 55 45 15 64 172 203 198 210 231 223 211 214 215 199 204 219 155 98 164 203 246 252 221 218 240 212 202 247 220 210 220 153 138 164 188 161 142 168 268 353 57 346 278 275 333 327 292 281 279 281 276 237 200 207 218 224 200 193 224 254 270 275 267 269 279 280 279 285 286 282 285 291 296 301 302 299 297 293 293
55 59 56 73 64 13 17 9 12 42 23 337 348 238 277 270 220 190 262 246 224 226 235 222 195 157 156 246 243 258 275 260 248 259 248 239 248 241 241 233 185 163 163 166 176 181 158 159 37 53 309 270 285 334 322 323 330 295 269 248 200 191 214 237 242 216 201 199 219 243 249 259 280 302 300 292 293 289 283 286 292 296 299 301 299 297 296 294
Height
1540 1540 1540 1540 1540 1541 1541 1541 1541 1542 1542 1542 1543 1543 1543 1543 1543 1543 1543 1543 1543 1543 1542 1542 1542 1541 1540 1539 1539 1538 1538 1537 1536 1533 1533 1535 1536 1535 1535 1535 1536 1536 1536 1536 1536 1536 1537 1537 1537 1538 1538 1538 1539 1541 1542 1544 1544 1545 1554 1560 1565 1573 1573 1572 1576 1576 1575 1578 1580 1581 1581 1581 1582 1583 1583 1584 1584 1583 1583 1583 1582 1581 1580 1579 1578 1577 1577 1576
1541 1541 1541 1541 1541 1541 1541 1542 1542 1542 1543 1543 1544 1544 1544 1544 1544 1544 1543 1543 1543 1543 1543 1542 1541 1540 1539 1538 1538 1538 1538 1538 1536 1534 1535 1537 1536 1536 1536 1536 1537 1537 1537 1537 1537 1537 1538 1538 1538 1538 1538 1539 1542 1543 1544 1546 1546 1550 1559 1562 1566 1572 1571 1570 1573 1574 1575 1576 1578 1580 1581 1580 1581 1582 1582 1583 1583 1583 1582 1582 1580 1580 1578 1578 1577 1577 1576 1574
1542 1542 1542 1542 1542 1542 1542 1543 1543 1543 1544 1544 1545 1545 1545 1545 1545 1544 1543 1543 1543 1543 1543 1542 1541 1539 1537 1536 1536 1537 1538 1537 1536 1536 1537 1538 1537 1537 1537 1537 1538 1538 1538 1538 1538 1538 1539 1539 1539 1540 1539 1541 1545 1545 1546 1548 1550 1554 1559 1562 1568 1572 1571 1572 1573 1574 1575 1575 1577 1580 1581 1581 1581 1581 1582 1582 1582 1582 1581 1580 1579 1578 1577 1577 1577 1576 1575 1573
1543 1543 1543 1543 1543 1543 1543 1544 1544 1545 1545 1545 1546 1546 1546 1545 1545 1544 1544 1544 1544 1544 1543 1542 1541 1538 1536 1535 1535 1537 1537 1537 1538 1539 1540 1539 1538 1538 1538 1539 1539 1539 1539 1539 1540 1540 1540 1540 1540 1541 1541 1544 1547 1547 1549 1552 1553 1557 1561 1565 1570 1571 1572 1574 1574 1575 1576 1576 1577 1579 1581 1581 1581 1581 1581 1581 1581 1581 1579 1578 1577 1577 1576 1576 1576 1575 1574 1572
1544 1544 1544 1544 1544 1545 1545 1545 1546 1546 1546 1546 1546 1546 1546 1546 1546 1545 1545 1545 1544 1544 1543 1543 1542 1539 1536 1534 1535 1537 1537 1540 1543 1542 1541 1540 1539 1539 1539 1540 1540 1541 1541 1541 1541 1541 1541 1542 1541 1542 1543 1548 1550 1549 1555 1557 1555 1561 1568 1569 1570 1571 1573 1575 1576 1576 1577 1578 1579 1580 1581 1581 1581 1581 1580 1580 1579 1579 1577 1577 1576 1576 1575 1575 1575 1574 1573 1572
1545 1545 1545 1546 1546 1546 1546 1546 1547 1547 1547 1547 1547 1547 1547 1547 1547 1546 1546 1546 1545 1544 1543 1543 1542 1540 1537 1536 1537 1537 1539 1545 1546 1543 1542 1541 1541 1541 1541 1542 1542 1542 1542 1542 1542 1542 1543 1543 1543 1544 1547 1552 1554 1554 1558 1559 1557 1563 1571 1572 1572 1572 1573 1576 1577 1577 1578 1579 1580 1580 1580 1580 1580 1580 1579 1579 1578 1577 1576 1576 1575 1575 1575 1575 1574 1573 1572 1571
1546 1546 1547 1547 1547 1547 1547 1548 1548 1548 1548 1548 1548 1548 1548 1548 1548 1547 1547 1546 1545 1544 1543 1543 1542 1542 1540 1539 1540 1539 1540 1546 1547 1544 1543 1542 1542 1543 1542 1543 1543 1543 1543 1543 1543 1543 1543 1543 1544 1547 1550 1555 1557 1559 1560 1560 1559 1563 1570 1574 1574 1574 1574 1577 1578 1579 1580 1579 1580 1581 1580 1581 1580 1579 1579 1577 1576 1576 1576 1575 1575 1574 1574 1574 1573 1572 1571 1570
1547 1547 1548 1548 1548 1548 1549 1549 1549 1549 1549 1549 1549 1549 1549 1549 1548 1548 1548 1546 1545 1543 1542 1543 1543 1543 1542 1542 1541 1539 1541 1547 1547 1545 1544 1544 1544 1544 1544 1544 1544 1544 1544 1544 1544 1544 1544 1544 1545 1548 1552 1557 1559 1562 1562 1561 1564 1567 1572 1575 1575 1576 1577 1578 1579 1580 1581 1581 1581 1581 1581 1580 1580 1580 1578 1576 1576 1575 1575 1574 1574 1574 1573 1572 1571 1570 1570 1569
1548 1549 1549 1549 1549 1550 1550 1550 1550 1550 1550 1550 1550 1550 1550 1550 1550 1549 1548 1548 1546 1544 1543 1542 1543 1543 1543 1543 1540 1539 1546 1550 1549 1547 1546 1545 1545 1545 1546 1545 1545 1545 1545 1545 1545 1545 1545 1545 1546 1548 1552 1558 1561 1563 1562 1563 1569 1572 1573 1575 1576 1578 1579 1580 1581 1581 1582 1581 1582 1581 1581 1581 1580 1580 1577 1575 1575 1574 1574 1573 1573 1573 1572 1571 1570 1569 1569 1567
1550 1550 1550 1550 1550 1551 1551 1551 1551 1551 1551 1551 1551 1551 1551 1551 1551 1550 1549 1549 1548 1546 1545 1543 1544 1544 1544 1543 1538 1543 1554 1553 1550 1549 1547 1547 1547 1547 1547 1546 1546 1546 1546 1546 1546 1545 1545 1545 1547 1549 1551 1557 1562 1565 1564 1565 1571 1574 1574 1576 1578 1580 1581 1581 1581 1582 1582 1582 1582 1582 1581 1581 1581 1581 1576 1573 1574 1573 1573 1572 1572 1572 1571 1570 1569 1568 1567 1566
1551 1551 1551 1551 1551 1551 1551 1551 1552 1551 1552 1552 1552 1552 1552 1552 1552 1551 1551 1551 1550 1549 1548 1547 1547 1545 1546 1542 1538 1549 1557 1554 1553 1551 1549 1549 1548 1548 1548 1547 1547 1547 1546 1546 1546 1547 1547 1548 1549 1551 1553 1559 1564 1567 1568 1570 1574 1576 1576 1578 1581 1581 1582 1582 1582 1583 1583 1583 1582 1582 1582 1581 1581 1579 1573 1571 1572 1572 1571 1571 1571 1570 1569 1568 1568 1567 1566 1564
1551 1552 1552 1552 1552 1552 1552 1552 1552 1552 1552 1552 1553 1553 1553 1553 1553 1553 1552 1552 1552 1551 1551 1550 1549 1548 1546 1541 1543 1555 1558 1555 1555 1553 1551 1551 1549 1550 1549 1549 1549 1548 1548 1547 1547 1549 1549 1550 1550 1551 1557 1561 1565 1569 1573 1576 1577 1577 1578 1580 1583 1583 1583 1583 1583 1583 1583 1583 1583 1583 1583 1579 1579 1575 1569 1570 1571 1570 1570 1569 1569 1569 1568 1567 1566 1566 1564 1563
1552 1552 1553 1553 1553 1553 1553 1553 1553 1553 1553 1553 1554 1554 1554 1554 1554 1554 1554 1553 1553 1553 1553 1552 1551 1550 1544 1543 1552 1558 1557 1557 1556 1554 1553 1552 1551 1552 1551 1551 1551 1551 1551 1549 1549 1551 1550 1551 1550 1553 1559 1561 1565 1571 1575 1578 1578 1580 1582 1582 1585 1585 1585 1583 1582 1584 1583 1583 1583 1584 1583 1575 1572 1570 1566 1569 1569 1568 1569 1567 1568 1567 1567 1566 1565 1564 1563 1561
1553 1553 1554 1554 1554 1554 1554 1554 1553 1554 1554 1554 1554 1555 1555 1555 1555 1555 1555 1555 1555 1554 1554 1554 1553 1551 1546 1549 1558 1559 1558 1560 1558 1556 1555 1555 1554 1553 1554 1553 1553 1553 1553 1551 1551 1552 1553 1554 1552 1555 1561 1563 1567 1572 1576 1580 1581 1584 1585 1586 1591 1588 1583 1583 1583 1583 1583 1583 1582 1585 1586 1574 1567 1566 1565 1567 1567 1567 1567 1566 1566 1566 1565 1565 1564 1563 1561 1560
1554 1555 1555 1555 1555 1554 1554 1554 1554 1554 1554 1555 1555 1556 1556 1556 1556 1556 1556 1556 1556 1555 1555 1555 1553 1552 1550 1554 1560 1560 1561 1561 1559 1558 1558 1559 1557 1556 1557 1556 1555 1556 1555 1555 1555 1556 1557 1556 1555 1559 1566 1567 1570 1574 1579 1582 1584 1588 1585 1585 1593 1589 1583 1583 1582 1582 1582 1582 1583 1585 1585 1574 1566 1564 1564 1566 1566 1566 1565 1564 1565 1564 1564 1563 1562 1562 1560 1558
1556 1556 1556 1557 1556 1556 1555 1555 1555 1555 1555 1556 1556 1557 1557 1557 1558 1557 1557 1557 1557 1557 1556 1555 1555 1553 1552 1558 1562 1561 1562 1561 1561 1561 1561 1561 1560 1559 1560 1559 1559 1559 1558 1559 1558 1559 1559 1558 1560 1565 1570 1572 1575 1577 1580 1584 1585 1589 1586 1583 1588 1587 1584 1584 1580 1581 1582 1582 1583 1583 1581 1573 1565 1562 1562 1565 1564 1564 1563 1562 1563 1562 1562 1562 1561 1560 1559 1557
1557 1557 1557 1558 1558 1558 1557 1556 1556 1556 1556 1556 1557 1558 1558 1558 1558 1558 1558 1558 1558 1558 1556 1556 1555 1553 1555 1561 1563 1562 1563 1563 1563 1564 1563 1563 1562 1562 1562 1562 1562 1561 1561 1561 1561 1561 1560 1561 1566 1571 1574 1577 1581 1579 1578 1582 1584 1586 1587 1585 1588 1588 1586 1583 1580 1581 1581 1582 1582 1582 1581 1573 1564 1561 1562 1564 1563 1563 1561 1560 1561 1561 1561 1560 1560 1559 1557 1556
1558 1558 1558 1558 1559 1559 1559 1558 1558 1557 1557 1557 1557 1559 1559 1560 1560 1559 1558 1559 1558 1558 1557 1556 1554 1556 1562 1565 1565 1565 1565 1565 1565 1565 1564 1564 1564 1563 1564 1563 1563 1563 1563 1562 1563 1563 1562 1565 1569 1572 1576 1578 1582 1580 1577 1582 1584 1582 1582 1582 1585 1588 1587 1584 1581 1580 1580 1581 1581 1581 1580 1571 1563 1561 1560 1561 1562 1560 1559 1558 1559 1559 1559 1559 1558 1557 1556 1554
1559 1559 1559 1559 1560 1560 1560 1560 1560 1560 1559 1558 1559 1559 1560 1561 1560 1559 1559 1559 1558 1559 1562 1562 1558 1562 1569 1569 1567 1568 1566 1566 1566 1565 1565 1565 1565 1565 1564 1564 1564 1564 1564 1564 1565 1565 1565 1569 1572 1576 1581 1582 1585 1585 1582 1584 1585 1583 1583 1582 1581 1582 1583 1583 1581 1580 1581 1581 1579 1578 1576 1569 1563 1560 1557 1557 1559 1558 1556 1557 1557 1557 1557 1557 1556 1555 1554 1552
1559 1560 1560 1560 1560 1560 1561 1561 1561 1561 1561 1561 1561 1561 1561 1560 1560 1562 1561 1559 1561 1564 1567 1568 1565 1566 1569 1570 1569 1569 1568 1567 1567 1566 1566 1566 1566 1566 1565 1565 1565 1564 1566 1568 1568 1569 1569 1574 1582 1586 1587 1586 1587 1588 1587 1588 1589 1587 1586 1584 1584 1583 1579 1579 1580 1580 1582 1579 1576 1576 1575 1570 1564 1558 1556 1556 1556 1556 1555 1554 1554 1554 1555 1555 1555 1554 1552 1551
1560 1560 1560 1560 1561 1561 1561 1561 1561 1561 1561 1561 1562 1561 1561 1560 1561 1564 1562 1562 1567 1569 1569 1569 1568 1568 1569 1570 1570 1570 1569 1568 1567 1567 1567 1567 1566 1566 1567 1566 1565 1567 1571 1571 1571 1573 1571 1576 1587 1588 1587 1587 1588 1588 1588 1588 1589 1587 1586 1583 1584 1585 1580 1578 1580 1580 1582 1580 1575 1577 1575 1566 1560 1557 1554 1554 1555 1553 1551 1552 1551 1552 1553 1553 1552 1552 1550 1549
1560 1560 1561 1561 1561 1561 1561 1561 1561 1560 1560 1561 1562 1562 1562 1560 1561 1562 1560 1563 1569 1570 1570 1571 1570 1570 1570 1571 1571 1571 1569 1568 1569 1569 1568 1567 1566 1567 1569 1568 1569 1573 1575 1572 1572 1574 1573 1579 1587 1587 1586 1587 1587 1588 1588 1587 1587 1586 1586 1584 1581 1584 1582 1578 1581 1582 1582 1580 1574 1575 1574 1563 1557 1556 1553 1553 1552 1550 1549 1550 1549 1550 1551 1551 1550 1549 1548 1547
1560 1560 1560 1561 1561 1561 1562 1562 1562 1562 1561 1561 1562 1562 1562 1561 1561 1561 1560 1563 1568 1571 1571 1572 1571 1571 1572 1572 1572 1572 1569 1569 1571 1570 1570 1569 1568 1569 1571 1572 1574 1577 1577 1575 1574 1573 1576 1582 1586 1586 1585 1585 1586 1589 1588 1585 1585 1586 1586 1584 1582 1585 1582 1576 1578 1582 1582 1581 1577 1576 1575 1565 1557 1553 1550 1550 1550 1548 1549 1548 1548 1549 1549 1549 1548 1547 1546 1545
1560 1560 1560 1561 1561 1562 1562 1563 1563 1563 1563 1563 1563 1562 1562 1562 1562 1562 1561 1563 1568 1572 1573 1573 1573 1573 1573 1573 1573 1572 1571 1572 1573 1572 1572 1571 1570 1572 1573 1574 1577 1578 1581 1581 1577 1576 1582 1585 1585 1584 1584 1585 1586 1586 1587 1583 1583 1587 1587 1584 1583 1584 1583 1579 1582 1583 1580 1581 1581 1577 1571 1560 1555 1553 1550 1550 1550 1548 1548 1547 1546 1547 1547 1547 1546 1545 1544 1542
1559 1560 1560 1560 1561 1561 1561 1562 1563 1563 1564 1564 1563 1563 1563 1562 1562 1562 1562 1565 1571 1574 1574 1575 1575 1574 1575 1574 1574 1574 1573 1573 1575 1574 1573 1573 1573 1574 1575 1576 1576 1578 1582 1582 1578 1579 1585 1585 1583 1583 1584 1586 1586 1584 1587 1587 1583 1585 1585 1585 1583 1583 1584 1583 1585 1584 1576 1575 1580 1579 1571 1558 1553 1554 1551 1551 1551 1548 1547 1546 1545 1545 1545 1545 1544 1542 1541 1540
1559 1559 1559 1559 1560 1561 1561 1562 1562 1563 1563 1563 1563 1563 1563 1563 1563 1563 1563 1570 1578 1579 1576 1576 1577 1577 1576 1575 1574 1573 1573 1575 1577 1576 1575 1575 1574 1574 1575 1577 1577 1578 1581 1581 1580 1582 1585 1585 1584 1585 1585 1586 1588 1586 1588 1590 1585 1581 1583 1585 1585 1584 1584 1583 1584 1583 1575 1574 1580 1583 1577 1568 1558 1549 1549 1554 1552 1548 1547 1545 1543 1543 1543 1542 1541 1540 1539 1538
1558 1558 1559 1559 1560 1560 1561 1561 1561 1562 1562 1562 1563 1563 1563 1563 1563 1564 1565 1575 1584 1583 1580 1579 1579 1579 1579 1578 1575 1573 1576 1577 1577 1577 1577 1576 1576 1575 1575 1579 1579 1579 1581 1580 1579 1583 1585 1585 1586 1587 1587 1586 1586 1584 1586 1590 1585 1579 1583 1586 1585 1584 1584 1585 1585 1582 1580 1580 1582 1583 1581 1579 1567 1549 1550 1556 1549 1544 1544 1542 1542 1541 1540 1539 1538 1538 1537 1536
1558 1558 1558 1559 1559 1559 1560 1560 1561 1562 1561 1562 1562 1562 1564 1563 1565 1564 1567 1582 1590 1585 1583 1582 1581 1581 1581 1580 1577 1576 1579 1579 1578 1579 1578 1577 1578 1576 1576 1580 1581 1581 1582 1579 1579 1585 1586 1585 1587 1587 1585 1583 1583 1584 1586 1589 1585 1581 1586 1588 1585 1586 1585 1588 1586 1583 1589 1584 1575 1578 1580 1579 1568 1550 1550 1555 1547 1542 1541 1539 1540 1537 1537 1537 1536 1536 1535 1534
1558 1558 1558 1558 1559 1559 1560 1560 1561 1561 1561 1562 1562 1563 1564 1563 1565 1566 1570 1587 1592 1586 1585 1584 1581 1582 1582 1581 1580 1579 1580 1580 1580 1581 1579 1579 1579 1578 1579 1581 1581 1581 1581 1578 1580 1585 1585 1585 1587 1586 1584 1582 1582 1585 1586 1587 1585 1584 1588 1587 1586 1588 1587 1589 1587 1582 1587 1581 1568 1574 1579 1577 1569 1551 1546 1550 1544 1541 1540 1537 1538 1535 1534 1535 1534 1534 1533 1532
1559 1559 1559 1559 1559 1559 1560 1560 1561 1561 1561 1562 1562 1563 1564 1564 1567 1570 1579 1591 1592 1588 1587 1584 1584 1586 1584 1582 1581 1582 1583 1582 1583 1583 1580 1581 1580 1579 1581 1581 1581 1581 1581 1581 1582 1585 1586 1586 1587 1586 1585 1584 1584 1585 1586 1586 1586 1585 1587 1586 1584 1587 1587 1588 1590 1585 1581 1573 1569 1576 1578 1578 1574 1554 1543 1545 1540 1538 1538 1536 1535 1533 1533 1533 1532 1531 1530 1529
1560 1559 1559 1559 1559 1559 1560 1560 1561 1562 1562 1562 1563 1563 1564 1566 1569 1575 1588 1594 1591 1589 1587 1587 1590 1590 1589 1588 1587 1586 1586 1585 1585 1584 1583 1585 1584 1582 1581 1582 1583 1582 1582 1583 1582 1584 1586 1584 1585 1586 1585 1585 1584 1583 1585 1587 1587 1586 1586 1583 1578 1580 1581 1579 1580 1582 1578 1570 1571 1580 1581 1582 1578 1555 1539 1540 1537 1538 1538 1535 1534 1532 1531 1531 1530 1529 1528 1527
1560 1560 1559 1559 1559 1559 1560 1560 1561 1562 1562 1563 1563 1564 1565 1568 1575 1586 1594 1592 1589 1591 1591 1592 1593 1592 1594 1594 1592 1592 1591 1588 1589 1589 1591 1593 1592 1592 1592 1593 1593 1586 1584 1589 1587 1584 1584 1583 1585 1585 1584 1586 1583 1581 1584 1585 1586 1584 1582 1580 1576 1577 1580 1575 1576 1583 1581 1572 1575 1583 1581 1579 1572 1550 1536 1536 1533 1534 1535 1533 1532 1531 1530 1529 1528 1527 1525 1525
1561 1560 1560 1559 1559 1560 1560 1561 1561 1561 1563 1563 1564 1566 1566 1570 1583 1598 1599 1592 1591 1595 1595 1596 1596 1596 1596 1593 1593 1596 1594 1592 1592 1592 1595 1596 1596 1599 1601 1602 1602 1593 1589 1595 1594 1586 1583 1584 1586 1585 1584 1585 1584 1582 1582 1583 1584 1584 1584 1584 1581 1585 1589 1584 1587 1592 1583 1572 1578 1589 1584 1572 1560 1543 1534 1534 1531 1530 1531 1530 1530 1529 1528 1527 1525 1525 1523 1522
1561 1561 1561 1560 1560 1560 1560 1561 1561 1562 1563 1563 1564 1566 1567 1576 1592 1601 1598 1594 1596 1597 1597 1598 1597 1596 1595 1594 1597 1598 1594 1593 1595 1594 1594 1594 1595 1598 1599 1600 1601 1599 1595 1596 1599 1596 1589 1584 1584 1584 1584 1585 1585 1585 1585 1586 1587 1589 1593 1592 1587 1589 1591 1588 1589 1588 1581 1580 1583 1586 1577 1561 1549 1536 1530 1530 1529 1529 1528 1527 1528 1527 1526 1526 1523 1522 1521 1519
1563 1562 1562 1561 1561 1561 1561 1561 1562 1562 1562 1563 1565 1568 1573 1584 1596 1597 1593 1595 1598 1597 1598 1600 1598 1594 1594 1597 1600 1600 1596 1594 1595 1596 1595 1597 1598 1599 1601 1600 1601 1602 1597 1593 1599 1603 1596 1587 1585 1585 1586 1586 1585 1586 1588 1587 1587 1593 1597 1592 1588 1590 1589 1592 1598 1596 1597 1595 1584 1577 1565 1552 1545 1533 1527 1530 1527 1526 1526 1525 1526 1526 1524 1525 1522 1520 1519 1516
1564 1563 1563 1562 1562 1562 1561 1561 1561 1562 1563 1563 1565 1573 1583 1589 1593 1594 1593 1596 1597 1598 1597 1598 1597 1594 1593 1596 1598 1599 1599 1596 1596 1596 1596 1601 1603 1602 1604 1603 1603 1604 1598 1595 1600 1602 1595 1586 1585 1587 1586 1587 1586 1586 1589 1587 1585 1592 1593 1588 1591 1596 1592 1592 1600 1606 1611 1599 1578 1572 1561 1548 1546 1533 1524 1530 1526 1522 1525 1524 1524 1524 1523 1523 1520 1517 1517 1515
1565 1564 1564 1563 1563 1562 1562 1562 1561 1561 1562 1562 1567 1581 1593 1595 1595 1597 1598 1597 1598 1600 1597 1594 1597 1597 1595 1595 1595 1596 1597 1596 1597 1595 1595 1601 1601 1601 1604 1603 1603 1604 1601 1601 1601 1603 1600 1589 1584 1587 1585 1585 1588 1587 1588 1589 1588 1589 1588 1588 1594 1598 1595 1595 1596 1598 1604 1595 1576 1572 1566 1555 1554 1540 1525 1527 1525 1522 1524 1523 1523 1523 1521 1520 1518 1515 1514 1513
1566 1565 1564 1564 1563 1563 1562 1561 1562 1562 1561 1565 1578 1591 1596 1597 1598 1599 1599 1598 1599 1600 1596 1593 1597 1601 1600 1596 1594 1598 1597 1593 1594 1596 1596 1599 1599 1600 1604 1603 1602 1604 1603 1602 1599 1604 1607 1591 1581 1588 1587 1585 1589 1587 1586 1589 1590 1589 1588 1592 1593 1591 1591 1596 1595 1589 1593 1594 1580 1573 1572 1564 1556 1542 1525 1522 1522 1520 1522 1522 1522 1521 1519 1518 1515 1513 1512 1511
1566 1565 1565 1565 1564 1563 1563 1562 1563 1562 1560 1570 1587 1595 1596 1598 1599 1599 1599 1599 1599 1598 1595 1595 1598 1601 1602 1599 1595 1599 1600 1594 1595 1598 1596 1597 1598 1599 1602 1602 1602 1603 1602 1603 1601 1603 1608 1596 1582 1585 1589 1587 1587 1585 1584 1586 1590 1591 1591 1594 1595 1593 1592 1594 1596 1593 1590 1591 1585 1577 1568 1552 1540 1534 1525 1519 1520 1519 1520 1520 1519 1518 1517 1516 1513 1511 1510 1509
1566 1566 1566 1566 1565 1564 1564 1563 1562 1564 1568 1581 1593 1595 1597 1599 1599 1599 1600 1599 1600 1598 1597 1598 1599 1598 1599 1601 1600 1600 1602 1600 1599 1599 1597 1599 1598 1597 1601 1602 1601 1603 1602 1603 1604 1603 1607 1603 1588 1583 1588 1586 1582 1583 1583 1582 1587 1589 1589 1591 1592 1594 1597 1595 1597 1600 1593 1587 1590 1589 1571 1544 1528 1527 1524 1520 1519 1519 1519 1519 1517 1516 1515 1513 1512 1510 1508 1507
1566 1567 1568 1567 1566 1566 1564 1564 1568 1575 1582 1591 1595 1596 1599 1599 1598 1600 1600 1600 1601 1600 1599 1601 1600 1598 1597 1599 1600 1601 1602 1601 1601 1600 1598 1599 1597 1595 1600 1601 1600 1603 1602 1602 1604 1603 1604 1604 1595 1588 1584 1578 1578 1585 1588 1586 1587 1587 1585 1587 1587 1588 1593 1591 1592 1600 1600 1592 1590 1592 1578 1545 1522 1521 1522 1519 1518 1518 1518 1518 1516 1515 1513 1511 1510 1508 1507 1506
1567 1570 1571 1568 1567 1566 1565 1570 1580 1585 1589 1594 1596 1597 1599 1599 1599 1601 1600 1600 1601 1601 1601 1602 1601 1601 1600 1598 1600 1603 1601 1599 1600 1600 1597 1598 1598 1596 1599 1601 1601 1602 1601 1601 1603 1604 1604 1604 1601 1592 1583 1578 1582 1589 1590 1588 1590 1590 1588 1589 1589 1589 1588 1586 1585 1591 1597 1597 1596 1599 1587 1547 1516 1517 1520 1517 1518 1517 1516 1517 1515 1513 1511 1510 1508 1506 1505 1504
1570 1572 1572 1569 1569 1567 1567 1576 1587 1591 1594 1598 1599 1599 1600 1600 1600 1601 1601 1601 1601 1601 1601 1601 1601 1601 1600 1601 1602 1602 1601 1598 1598 1598 1598 1599 1600 1599 1600 1601 1601 1602 1602 1602 1602 1604 1604 1603 1599 1590 1581 1581 1586 1589 1590 1590 1590 1588 1587 1590 1590 1587 1585 1586 1588 1589 1589 1589 1590 1597 1586 1542 1512 1516 1519 1515 1517 1517 1515 1516 1514 1511 1510 1507 1506 1505 1503 1502
1572 1574 1573 1570 1569 1568 1570 1578 1587 1593 1598 1599 1599 1600 1600 1600 1601 1601 1602 1601 1601 1602 1601 1601 1602 1600 1601 1603 1602 1602 1602 1598 1596 1598 1600 1600 1599 1599 1601 1601 1601 1602 1602 1601 1602 1602 1600 1599 1598 1591 1582 1578 1579 1581 1583 1585 1587 1584 1584 1590 1589 1587 1590 1591 1593 1595 1588 1580 1579 1583 1572 1536 1512 1515 1517 1515 1517 1515 1513 1515 1512 1510 1508 1505 1504 1503 1501 1500
1574 1574 1575 1574 1571 1570 1575 1582 1586 1591 1598 1598 1598 1600 1600 1600 1601 1601 1601 1601 1601 1602 1601 1601 1602 1601 1602 1604 1602 1603 1604 1599 1597 1599 1601 1601 1600 1601 1601 1601 1602 1603 1602 1602 1603 1602 1600 1600 1598 1592 1588 1584 1578 1575 1575 1577 1582 1583 1583 1587 1587 1587 1588 1585 1588 1592 1585 1579 1580 1574 1555 1528 1512 1512 1513 1514 1516 1514 1512 1512 1510 1509 1506 1503 1502 1500 1498 1498
1575 1577 1579 1578 1576 1575 1580 1586 1587 1589 1594 1595 1595 1599 1600 1599 1600 1600 1600 1600 1600 1601 1600 1600 1601 1601 1602 1602 1600 1601 1603 1603 1602 1600 1600 1599 1598 1601 1602 1602 1603 1603 1602 1603 1603 1603 1604 1603 1599 1593 1588 1584 1577 1572 1576 1581 1580 1578 1578 1581 1583 1586 1587 1585 1587 1585 1577 1579 1577 1559 1545 1534 1520 1514 1513 1512 1512 1512 1510 1508 1507 1505 1503 1501 1500 1497 1495 1495
1578 1583 1586 1584 1582 1582 1585 1588 1589 1590 1593 1593 1593 1598 1600 1599 1599 1600 1599 1600 1600 1600 1600 1600 1601 1599 1599 1600 1599 1598 1601 1603 1603 1601 1599 1599 1600 1602 1602 1602 1603 1602 1602 1603 1602 1604 1603 1598 1597 1596 1588 1583 1580 1576 1579 1584 1580 1574 1574 1576 1578 1582 1586 1585 1580 1572 1570 1574 1562 1542 1542 1544 1528 1516 1514 1512 1510 1509 1507 1505 1503 1501 1499 1497 1495 1494 1493 1491
1581 1586 1590 1588 1588 1590 1590 1591 1593 1593 1594 1595 1597 1600 1600 1599 1598 1597 1598 1599 1599 1599 1599 1598 1598 1599 1598 1599 1598 1597 1598 1599 1598 1598 1599 1600 1601 1600 1599 1601 1603 1601 1602 1603 1602 1604 1603 1595 1595 1597 1587 1582 1584 1581 1580 1583 1580 1575 1573 1573 1574 1579 1582 1577 1569 1566 1567 1563 1547 1535 1539 1541 1527 1517 1514 1510 1510 1509 1505 1503 1501 1498 1496 1494 1492 1491 1489 1488
1585 1587 1590 1590 1591 1594 1594 1594 1595 1594 1594 1596 1598 1600 1600 1598 1597 1597 1599 1600 1598 1600 1599 1595 1595 1598 1599 1600 1598 1596 1596 1594 1593 1595 1596 1597 1598 1597 1595 1596 1599 1601 1602 1602 1602 1603 1600 1594 1597 1600 1590 1581 1578 1578 1580 1581 1578 1572 1569 1569 1570 1572 1574 1570 1564 1564 1566 1559 1546 1540 1543 1537 1524 1517 1513 1508 1507 1508 1504 1501 1499 1496 1493 1492 1490 1488 1486 1484
1588 1589 1591 1591 1592 1595 1596 1596 1595 1594 1595 1596 1596 1598 1601 1599 1598 1598 1600 1598 1596 1599 1600 1596 1595 1598 1599 1600 1599 1596 1594 1593 1592 1593 1595 1595 1596 1595 1593 1591 1595 1601 1602 1601 1603 1603 1597 1594 1598 1600 1591 1578 1571 1571 1575 1578 1577 1571 1563 1562 1566 1568 1570 1570 1568 1566 1567 1561 1550 1549 1551 1539 1519 1511 1512 1508 1504 1504 1502 1498 1496 1493 1491 1489 1486 1484 1483 1481
1590 1591 1592 1592 1595 1598 1597 1598 1598 1596 1596 1597 1596 1598 1600 1599 1598 1598 1598 1597 1596 1597 1599 1597 1597 1598 1600 1600 1599 1595 1593 1594 1593 1593 1593 1593 1593 1593 1592 1591 1593 1597 1599 1600 1601 1600 1598 1595 1596 1597 1587 1573 1568 1569 1570 1572 1574 1568 1556 1550 1556 1563 1562 1560 1561 1561 1558 1552 1548 1550 1548 1531 1512 1508 1509 1505 1502 1501 1499 1495 1492 1489 1488 1486 1484 1481 1480 1478
1593 1593 1593 1593 1596 1600 1599 1599 1600 1597 1597 1600 1601 1600 1600 1598 1599 1599 1595 1595 1596 1596 1597 1597 1596 1597 1598 1597 1596 1594 1593 1593 1593 1592 1593 1592 1592 1591 1591 1591 1592 1592 1595 1599 1599 1599 1599 1593 1591 1595 1585 1568 1568 1574 1573 1571 1564 1551 1540 1536 1540 1550 1551 1548 1549 1549 1546 1543 1541 1537 1527 1513 1507 1509 1507 1502 1499 1497 1494 1492 1489 1486 1484 1483 1481 1478 1476 1475